User: anonymous   Login
Location: Br�znic
(45.9167°N, 22.6500°E)
Time: 19:45:02
(UTC+00:00)
Language:

Cosmos 2181 Rocket - Orbit

View from above orbital plane
View from above orbital plane
View from above satellite
View from above satellite

Ground track
Ground track

The orbit data is extracted from the following two-line orbital elements,

1 21903U 92012B   21335.50325028  .00000030  00000-0  15933-4 0  9996
2 21903  82.9390  57.5316 0041805 232.7935 138.2462 13.74521775490993
Epoch (UTC): 01 December 2021 12:04:40
Eccentricity: 0.0041805
inclination: 82.9390°
perigee height: 952 km
apogee height: 1014 km
right ascension of ascending node: 57.5316°
argument of perigee: 232.7935°
revolutions per day: 13.74521775
mean anomaly at epoch: 138.2462°
orbit number at epoch: 49099

The dashed part of the orbit path shows where the satellite is in the earth's shadow,  

DLR